Gulkana, AK

8:43 AM AKDT on April 29, 2017 (GMT -0800)
Gulkana

Weather History for PAGK - October, 2012

Change the Weather History Date:

Tuesday, October 23, 2012

  Actual Average Record
Temperature  
Mean Temperature 2 °F -  
Max Temperature 18 °F 29 °F 48 °F (1987)
Min Temperature -14 °F 13 °F -21 °F (1958)
Degree Days  
Heating Degree Days 63    
Moisture  
Dew Point -7 °F    
Average Humidity 72    
Maximum Humidity 83    
Minimum Humidity 39    
Precipitation  
Precipitation 0.00 in - - ()
Snow  
Snow 0.00 in - - ()
Snow Depth 1.00 in    
Sea Level Pressure  
Sea Level Pressure 30.48 in    
Wind  
Wind Speed 1 mph (NNW)    
Max Wind Speed 5 mph    
Max Gust Speed -    
Visibility 10 miles    
Events      
Averages and records for this station are not official NWS values.
T = Trace of Precipitation, MM = Missing Value Source: NWS Daily Summary

Daily Weather History Graph

Daily Weather History Graph

Search for Another Location

Airport or City:

Trip Planner

Search our weather history database for the weather conditions in past years. The results will help you decide how hot, cold, wet, or windy it might be!

Date:

Astronomy

Oct. 23, 2012 Rise Set
Actual Time 8:50 AM AKDT 6:00 PM AKDT
Civil Twilight 8:03 AM AKDT 6:47 PM AKDT
Nautical Twilight 7:11 AM AKDT 7:39 PM AKDT
Astronomical Twilight 6:19 AM AKDT 8:30 PM AKDT
Moon 4:17 PM AKDT (10/23) 1:10 AM AKDT (10/23)
Length of Visible Light 10h 43m
Length of Day
9h 09m
Waxing Gibbous, 68% of the Moon is Illuminated
Oct 23
Waxing Gibbous
Oct 29
Full
Nov 6
Last Quarter
Nov 13
New
Nov 20
First Quarter

Hourly Weather History & Observations

Time (AKDT) Temp. Windchill Dew Point Humidity Pressure Visibility Wind Dir Wind Speed Gust Speed Precip Events Conditions
12:53 AM -8.0 °F -16.9 °F -11.9 °F 83% 30.45 in 10.0 mi NNW 3.5 mph - N/A   Clear
1:53 AM -9.0 °F - -14.1 °F 79% 30.45 in 10.0 mi Calm Calm - N/A   Clear
2:53 AM -9.9 °F - -14.1 °F 82% 30.45 in 10.0 mi Calm Calm - N/A   Clear
4:53 AM -11.0 °F - -16.1 °F 78% 30.46 in 10.0 mi Calm Calm - N/A   Clear
5:53 AM -11.0 °F - -16.1 °F 78% 30.47 in 10.0 mi Calm Calm - N/A   Clear
5:57 AM -11.2 °F - -16.6 °F 77% 30.28 in 10.0 mi Calm Calm - N/A   Clear
7:53 AM -13.0 °F -22.7 °F -17.0 °F 82% 30.52 in 10.0 mi NW 3.5 mph - N/A   Clear
8:53 AM -13.0 °F - -18.0 °F 78% 30.53 in 10.0 mi Calm Calm - N/A   Clear
9:53 AM -6.0 °F -16.9 °F -11.9 °F 75% 30.53 in 10.0 mi North 4.6 mph - N/A   Clear
10:53 AM 1.9 °F - -4.0 °F 76% 30.52 in 10.0 mi Calm Calm - N/A   Clear
11:53 AM 5.0 °F - -0.9 °F 76% 30.51 in 10.0 mi Calm Calm - N/A   Clear
12:53 PM 10.0 °F - -0.0 °F 64% 30.51 in 10.0 mi Calm Calm - N/A   Clear
1:53 PM 12.0 °F - 1.9 °F 64% 30.50 in 10.0 mi Calm Calm - N/A   Clear
2:53 PM 16.0 °F - 3.0 °F 57% 30.48 in 10.0 mi Calm Calm - N/A   Clear
3:53 PM 17.1 °F - 3.0 °F 54% 30.48 in 10.0 mi Calm Calm - N/A   Clear
4:53 PM 17.1 °F - 3.0 °F 54% 30.48 in 10.0 mi Calm Calm - N/A   Clear
5:53 PM 12.9 °F - 1.9 °F 62% 30.49 in 10.0 mi Calm Calm - N/A   Clear
6:53 PM 8.1 °F - -0.0 °F 70% 30.50 in 10.0 mi Calm Calm - N/A   Clear
7:53 PM 3.0 °F - -2.9 °F 76% 30.51 in 10.0 mi Calm Calm - N/A   Clear
8:53 PM -0.0 °F - -4.0 °F 83% 30.53 in 10.0 mi Calm Calm - N/A   Clear
9:25 PM 1.4 °F - -4.0 °F 78% 30.31 in 10.0 mi Calm Calm - N/A   Clear
9:53 PM -2.0 °F - -7.1 °F 79% 30.53 in 10.0 mi Calm Calm - N/A   Clear
10:53 PM -5.1 °F -13.6 °F -9.0 °F 83% 30.53 in 10.0 mi NNW 3.5 mph - N/A   Clear
11:53 PM -6.0 °F - -9.9 °F 83% 30.53 in 10.0 mi Calm Calm - N/A   Clear